Thunderstorms From: 20-05-2018 05:00 Until: 21-05-2018 05:00 warning for: Thunderstorms Level: Yellow info button

Although rather usual in this region, locally or potentially dangerous phenomena are expected. (such as local winds, summer thunderstorms, rising streams or high waves) Be aware and pay attention to the latest weather updates, especially if you carry out activities exposed to weather or close to a stream or shoreline. 


Meteo18 Weather Cam more information Meteo18 Weather Cam


warning for Thunderstorms more information blitzortung!


Rain radar more information rain snow radar


Visit our other weather sites:

Template documentation
and downloads

And another site



Weather Underground History page Text

Daily Summary for March 25, 2017 Units:  Metric    English   Both
« Previous Day
Next Day »
Daily Weekly Monthly Yearly Custom
  High: Low: Average:
Temperature: -17.8 °C -14.2 °C -11.6 °C
Dew Point: -17.8 °C -14.9 °C -13.7 °C
Humidity: Humidity % 63 % 78 %
Wind Speed: 0 km/h 0 km/h 13.5 km/h
Wind Gust: 0 km/h - -
Wind:- - East
Pressure: 0 hPa 34405.1 hPa -
Precipitation: 0 mm    
Historical Graphs
 
 
Tabular Data for March 25, 2017
Time Temperature Dew Point Pressure Wind Wind Speed Wind Gust Humidity Rainfall Rate (Hourly)
-17.8 °C -17.8 °C 0 hPa Calm     Humidity % 0 mm
00:02 -12.6 °C -13.7 °C 34625.2 hPa NNE 10.3 km/h 31.1 km/h 88 % 0 mm
00:07 -12.7 °C -13.7 °C 34625.2 hPa North 31.1 km/h 31.1 km/h 88 % 0 mm
00:12 -12.7 °C -13.7 °C 34611.7 hPa NE 2.6 km/h 31.1 km/h 88 % 0 mm
00:17 -12.7 °C -13.7 °C 34611.7 hPa NE 25.9 km/h 33.6 km/h 88 % 0 mm
00:22 -12.7 °C -13.7 °C 34611.7 hPa NNW 10.3 km/h 36.2 km/h 88 % 0 mm
00:32 -12.8 °C -13.8 °C 34611.7 hPa NE 20.8 km/h 36.2 km/h 88 % 0 mm
00:37 -12.8 °C -13.9 °C 34611.7 hPa NNE 7.7 km/h 36.2 km/h 88 % 0 mm
00:42 -12.8 °C -13.9 °C 34611.7 hPa North 23.3 km/h 36.2 km/h 88 % 0 mm
00:52 -12.8 °C -13.9 °C 34611.7 hPa North 12.9 km/h 36.2 km/h 88 % 0 mm
00:57 -12.9 °C -13.9 °C 34611.7 hPa NNE 10.3 km/h 41.4 km/h 88 % 0 mm
01:02 -12.9 °C -14 °C 34611.7 hPa NNE 12.9 km/h 41.4 km/h 88 % 0 mm
01:12 -12.9 °C -14 °C 34611.7 hPa North 10.3 km/h 41.4 km/h 88 % 0 mm
01:17 -12.9 °C -14 °C 34611.7 hPa NE 7.7 km/h 38.8 km/h 88 % 0 mm
01:22 -13 °C -14.1 °C 34611.7 hPa NW 12.9 km/h 38.8 km/h 88 % 0 mm
01:27 -13 °C -14.1 °C 34611.7 hPa NNE 20.8 km/h 38.8 km/h 88 % 0 mm
01:32 -13 °C -14.1 °C 34611.7 hPa NNE 20.8 km/h 38.8 km/h 88 % 0 mm
01:37 -13 °C -14.1 °C 34601.5 hPa North 12.9 km/h 36.2 km/h 88 % 0 mm
01:42 -13.1 °C -14 °C 34601.5 hPa NNE 31.1 km/h 36.2 km/h 89 % 0 mm
01:47 -13.1 °C -14 °C 34601.5 hPa NW 20.8 km/h 36.2 km/h 89 % 0 mm
01:52 -13.1 °C -14 °C 34601.5 hPa NE 15.6 km/h 36.2 km/h 89 % 0 mm
01:57 -13.1 °C -14.1 °C 34601.5 hPa NNE 10.3 km/h 41.4 km/h 89 % 0 mm
02:02 -13.1 °C -14.1 °C 34591.4 hPa NNE 28.5 km/h 41.4 km/h 88 % 0 mm
02:12 -13.1 °C -14.1 °C 34591.4 hPa NNE 23.3 km/h 41.4 km/h 88 % 0 mm
02:17 -13.1 °C -14.1 °C 34591.4 hPa NNW 7.7 km/h 49.2 km/h 89 % 0 mm
02:22 -13.2 °C -14.1 °C 34591.4 hPa North 5.1 km/h 49.2 km/h 89 % 0 mm
02:27 -13.2 °C -14.2 °C 34591.4 hPa North 10.3 km/h 31.1 km/h 89 % 0 mm
02:32 -13.2 °C -14.1 °C 34577.8 hPa NE 12.9 km/h 31.1 km/h 90 % 0 mm
02:37 -13.2 °C -14.1 °C 34577.8 hPa NNE 25.9 km/h 33.6 km/h 90 % 0 mm
02:42 -13.3 °C -14.1 °C 34577.8 hPa NNW 10.3 km/h 33.6 km/h 90 % 0 mm
02:52 -13.2 °C -14.2 °C 34577.8 hPa North 10.3 km/h 33.6 km/h 89 % 0 mm
02:57 -13.3 °C -14.2 °C 34577.8 hPa NE 18.2 km/h 44.1 km/h 89 % 0 mm
03:02 -13.3 °C -14.3 °C 34577.8 hPa North 18.2 km/h 44.1 km/h 89 % 0 mm
03:12 -13.4 °C -14.2 °C 34567.7 hPa NW 10.3 km/h 44.1 km/h 90 % 0 mm
03:17 -13.4 °C -14.2 °C 34567.7 hPa NE 7.7 km/h 38.8 km/h 90 % 0 mm
03:22 -13.4 °C -14.2 °C 34567.7 hPa NNE 25.9 km/h 38.8 km/h 90 % 0 mm
03:32 -13.5 °C -14.3 °C 34554.1 hPa Calm   28.5 km/h 90 % 0 mm
03:42 -13.5 °C -14.3 °C 34554.1 hPa NE 31.1 km/h 31.1 km/h 90 % 0 mm
03:52 -13.4 °C -14.3 °C 34554.1 hPa ENE 33.6 km/h 33.6 km/h 90 % 0 mm
03:57 -13.4 °C -14.3 °C 34544 hPa NE 38.8 km/h 46.7 km/h 89 % 0 mm
04:02 -13.4 °C -14.3 °C 34544 hPa NNE 31.1 km/h 46.7 km/h 89 % 0 mm
04:12 -13.4 °C -14.3 °C 34544 hPa North 18.2 km/h 46.7 km/h 89 % 0 mm
04:17 -13.4 °C -14.3 °C 34544 hPa North 10.3 km/h 49.2 km/h 89 % 0 mm
04:22 -13.4 °C -14.4 °C 34554.1 hPa NNE 25.9 km/h 49.2 km/h 89 % 0 mm
04:27 -13.4 °C -14.4 °C 34554.1 hPa NE 23.3 km/h 41.4 km/h 89 % 0 mm
04:32 -13.5 °C -14.4 °C 34554.1 hPa NNE 25.9 km/h 41.4 km/h 89 % 0 mm
04:42 -13.6 °C -14.4 °C 34544 hPa NE 15.6 km/h 44.1 km/h 90 % 0 mm
04:47 -13.6 °C -14.4 °C 34544 hPa NNE 12.9 km/h 44.1 km/h 90 % 0 mm
04:52 -13.7 °C -14.5 °C 34544 hPa NE 15.6 km/h 44.1 km/h 90 % 0 mm
04:57 -13.7 °C -14.5 °C 34544 hPa NE 12.9 km/h 44.1 km/h 90 % 0 mm
05:02 -13.7 °C -14.6 °C 34544 hPa ENE 25.9 km/h 38.8 km/h 90 % 0 mm
05:12 -13.7 °C -14.5 °C 34544 hPa NNE 18.2 km/h 25.9 km/h 91 % 0 mm
05:17 -13.7 °C -14.6 °C 34544 hPa NNE 33.6 km/h 33.6 km/h 90 % 0 mm
05:22 -13.7 °C -14.6 °C 34544 hPa NE 2.6 km/h 33.6 km/h 90 % 0 mm
05:32 -13.8 °C -14.6 °C 34533.8 hPa North 5.1 km/h 33.6 km/h 90 % 0 mm
05:37 -13.8 °C -14.6 °C 34533.8 hPa NNE 10.3 km/h 33.6 km/h 91 % 0 mm
05:42 -13.9 °C -14.7 °C 34533.8 hPa NE 15.6 km/h 28.5 km/h 91 % 0 mm
05:47 -13.9 °C -14.7 °C 34533.8 hPa Calm   28.5 km/h 91 % 0 mm
05:52 -13.9 °C -14.7 °C 34533.8 hPa NNE 5.1 km/h 28.5 km/h 91 % 0 mm
06:02 -13.9 °C -14.7 °C 34533.8 hPa NE 7.7 km/h 20.8 km/h 91 % 0 mm
06:12 -13.9 °C -14.7 °C 34520.3 hPa NNE 12.9 km/h 28.5 km/h 91 % 0 mm
06:17 -14.1 °C -14.8 °C 34533.8 hPa NNE 12.9 km/h 28.5 km/h 91 % 0 mm
06:32 -14.2 °C -14.9 °C 34520.3 hPa NE 5.1 km/h 28.5 km/h 92 % 0 mm
06:42 -14.1 °C -14.8 °C 34520.3 hPa NNE 18.2 km/h 23.3 km/h 92 % 0 mm
06:47 -14.1 °C -14.7 °C 34520.3 hPa NNE 2.6 km/h 23.3 km/h 92 % 0 mm
06:52 -14.1 °C -14.8 °C 34520.3 hPa NNE 12.9 km/h 31.1 km/h 91 % 0 mm
07:02 -14.1 °C -14.9 °C 34510.1 hPa NNE 25.9 km/h 31.1 km/h 91 % 0 mm
07:12 -14.1 °C -14.8 °C 34510.1 hPa ENE 7.7 km/h 36.2 km/h 91 % 0 mm
07:17 -14 °C -14.8 °C 34510.1 hPa NE 7.7 km/h 36.2 km/h 91 % 0 mm
07:22 -13.9 °C -14.7 °C 34510.1 hPa NNE 18.2 km/h 36.2 km/h 91 % 0 mm
07:32 -13.9 °C -14.8 °C 34496.6 hPa NNW 12.9 km/h 33.6 km/h 90 % 0 mm
07:42 -13.8 °C -14.7 °C 34496.6 hPa NE 36.2 km/h 46.7 km/h 90 % 0 mm
07:47 -13.8 °C -14.7 °C 34496.6 hPa NE 25.9 km/h 46.7 km/h 90 % 0 mm
07:57 -13.8 °C -14.7 °C 34496.6 hPa NNE 25.9 km/h 46.7 km/h 89 % 0 mm
08:12 -13.7 °C -14.6 °C 34496.6 hPa NE 31.1 km/h 46.7 km/h 89 % 0 mm
08:17 -13.6 °C -14.6 °C 34510.1 hPa NNE 25.9 km/h 46.7 km/h 89 % 0 mm
08:22 -13.6 °C -14.5 °C 34510.1 hPa NE 33.6 km/h 46.7 km/h 89 % 0 mm
08:32 -13.4 °C -14.5 °C 34510.1 hPa NNE 28.5 km/h 41.4 km/h 88 % 0 mm
08:42 -13.4 °C -14.5 °C 34510.1 hPa NE 33.6 km/h 44.1 km/h 87 % 0 mm
08:47 -13.3 °C -14.4 °C 34510.1 hPa North 23.3 km/h 44.1 km/h 87 % 0 mm
08:52 -13.2 °C -14.3 °C 34496.6 hPa NE 20.8 km/h 49.2 km/h 87 % 0 mm
09:02 -13.1 °C -14.2 °C 34496.6 hPa NNE 28.5 km/h 49.2 km/h 87 % 0 mm
09:12 -12.9 °C -14.1 °C 34496.6 hPa NNE 20.8 km/h 44.1 km/h 86 % 0 mm
09:17 -12.8 °C -14.2 °C 34496.6 hPa NE 15.6 km/h 44.1 km/h 85 % 0 mm
09:22 -12.7 °C -14.1 °C 34496.6 hPa ENE 18.2 km/h 46.7 km/h 85 % 0 mm
09:32 -12.7 °C -14.1 °C 34496.6 hPa NE 31.1 km/h 44.1 km/h 84 % 0 mm
09:37 -12.6 °C -14.1 °C 34496.6 hPa ENE 20.8 km/h 44.1 km/h 84 % 0 mm
09:42 -12.6 °C -14.1 °C 34486.4 hPa NE 12.9 km/h 46.7 km/h 83 % 0 mm
09:52 -12.4 °C -13.9 °C 34486.4 hPa East 25.9 km/h 46.7 km/h 83 % 0 mm
09:57 -12.3 °C -13.8 °C 34486.4 hPa NNE 36.2 km/h 46.7 km/h 83 % 0 mm
10:02 -12.3 °C -13.9 °C 34486.4 hPa NE 18.2 km/h 46.7 km/h 82 % 0 mm
10:12 -12.2 °C -13.8 °C 34486.4 hPa NE 38.8 km/h 51.8 km/h 82 % 0 mm
10:17 -12.1 °C -13.7 °C 34486.4 hPa ENE 31.1 km/h 51.8 km/h 82 % 0 mm
10:27 -12.1 °C -13.7 °C 34462.7 hPa NNE 33.6 km/h 44.1 km/h 82 % 0 mm
10:32 -12.1 °C -13.8 °C 34462.7 hPa NE 20.8 km/h 44.1 km/h 81 % 0 mm
10:42 -11.9 °C -13.7 °C 34462.7 hPa NE 23.3 km/h 49.2 km/h 80 % 0 mm
10:52 -11.6 °C -13.3 °C 34462.7 hPa NE 31.1 km/h 38.8 km/h 81 % 0 mm
10:57 -11.6 °C -13.6 °C 34462.7 hPa NE 31.1 km/h 38.8 km/h 79 % 0 mm
11:02 -11.6 °C -13.6 °C 34452.6 hPa North 49.2 km/h 49.2 km/h 79 % 0 mm
11:12 -11.3 °C -13.3 °C 34452.6 hPa NNE 31.1 km/h 49.2 km/h 79 % 0 mm
11:17 -11.3 °C -13.4 °C 34452.6 hPa NE 20.8 km/h 49.2 km/h 78 % 0 mm
11:27 -11.2 °C -13.3 °C 34452.6 hPa NE 18.2 km/h 44.1 km/h 78 % 0 mm
11:32 -11.2 °C -13.3 °C 34442.4 hPa NE 28.5 km/h 44.1 km/h 77 % 0 mm
11:37 -11.1 °C -13.2 °C 34442.4 hPa ENE 23.3 km/h 44.1 km/h 78 % 0 mm
11:42 -11 °C -13.2 °C 34442.4 hPa ENE 36.2 km/h 49.2 km/h 77 % 0 mm
11:52 -10.9 °C -13.2 °C 34442.4 hPa NE 44.1 km/h 57 km/h 76 % 0 mm
11:57 -10.8 °C -13.1 °C 34442.4 hPa NE 25.9 km/h 57 km/h 76 % 0 mm
12:02 -10.7 °C -13.1 °C 34452.6 hPa NE 25.9 km/h 51.8 km/h 75 % 0 mm
12:12 -10.6 °C -13.1 °C 34442.4 hPa NNE 25.9 km/h 49.2 km/h 74 % 0 mm
12:17 -10.6 °C -13.2 °C 34442.4 hPa ENE 31.1 km/h 49.2 km/h 73 % 0 mm
12:22 -10.5 °C -13 °C 34442.4 hPa NNE 18.2 km/h 46.7 km/h 74 % 0 mm
12:32 -10.3 °C -12.8 °C 34442.4 hPa NE 33.6 km/h 46.7 km/h 74 % 0 mm
12:37 -10.3 °C -12.9 °C 34428.8 hPa NNE 15.6 km/h 46.7 km/h 73 % 0 mm
12:42 -10.2 °C -13.1 °C 34428.8 hPa North 44.1 km/h 46.7 km/h 71 % 0 mm
12:47 -10.1 °C -13 °C 34428.8 hPa NE 33.6 km/h 46.7 km/h 71 % 0 mm
12:52 -9.9 °C -12.7 °C 34428.8 hPa NE 20.8 km/h 51.8 km/h 72 % 0 mm
13:02 -9.9 °C -12.8 °C 34418.7 hPa East 20.8 km/h 51.8 km/h 71 % 0 mm
13:12 -9.8 °C -12.8 °C 34418.7 hPa NE 20.8 km/h 46.7 km/h 70 % 0 mm
13:17 -9.7 °C -12.7 °C 34418.7 hPa NNE 23.3 km/h 44.1 km/h 70 % 0 mm
13:22 -9.7 °C -13.1 °C 34418.7 hPa NE 15.6 km/h 44.1 km/h 67 % 0 mm
13:32 -9.6 °C -12.7 °C 34418.7 hPa ENE 31.1 km/h 46.7 km/h 69 % 0 mm
13:37 -9.6 °C -12.6 °C 34428.8 hPa ENE 15.6 km/h 46.7 km/h 70 % 0 mm
13:42 -9.4 °C -12.7 °C 34418.7 hPa NE 38.8 km/h 38.8 km/h 68 % 0 mm
13:47 -9.4 °C -12.7 °C 34418.7 hPa NE 28.5 km/h 44.1 km/h 68 % 0 mm
13:52 -9.3 °C -12.6 °C 34418.7 hPa NE 20.8 km/h 44.1 km/h 68 % 0 mm
14:02 -9.3 °C -12.7 °C 34418.7 hPa NNE 28.5 km/h 38.8 km/h 67 % 0 mm
14:22 -9.1 °C -12.5 °C 34405.1 hPa NE 25.9 km/h 41.4 km/h 67 % 0 mm
14:32 -9 °C -12.5 °C 34405.1 hPa ENE 23.3 km/h 38.8 km/h 66 % 0 mm
14:37 -8.9 °C -12.4 °C 34405.1 hPa ENE 28.5 km/h 36.2 km/h 66 % 0 mm
14:52 -8.8 °C -12.7 °C 34405.1 hPa NE 12.9 km/h 46.7 km/h 63 % 0 mm
14:57 -8.8 °C -12.6 °C 34405.1 hPa ENE 15.6 km/h 33.6 km/h 64 % 0 mm
15:02 -8.7 °C -12.3 °C 34418.7 hPa ENE 15.6 km/h 33.6 km/h 65 % 0 mm
15:12 -8.6 °C -12.2 °C 34418.7 hPa ENE 7.7 km/h 31.1 km/h 65 % 0 mm
15:17 -8.6 °C -12.4 °C 34418.7 hPa SSE 7.7 km/h 31.1 km/h 64 % 0 mm
15:22 -8.6 °C -12.5 °C 34418.7 hPa NNE 2.6 km/h 28.5 km/h 63 % 0 mm
15:32 -8.4 °C -12.4 °C 34418.7 hPa ENE 5.1 km/h 28.5 km/h 63 % 0 mm
15:37 -8.4 °C -12.4 °C 34418.7 hPa East 2.6 km/h 12.9 km/h 63 % 0 mm
15:42 -8.4 °C -12.1 °C 34418.7 hPa ENE 5.1 km/h 10.3 km/h 65 % 0 mm
15:47 -8.4 °C -12.4 °C 34405.1 hPa ESE 5.1 km/h 12.9 km/h 63 % 0 mm
15:52 -8.5 °C -12.4 °C 34405.1 hPa East 2.6 km/h 12.9 km/h 63 % 0 mm
15:57 -8.5 °C -12.4 °C 34405.1 hPa East 2.6 km/h 12.9 km/h 63 % 0 mm
16:02 -8.4 °C -12.3 °C 34405.1 hPa Calm   12.9 km/h 63 % 0 mm
16:12 -8.3 °C -12.3 °C 34405.1 hPa East 2.6 km/h 7.7 km/h 63 % 0 mm
16:17 -8.4 °C -12.2 °C 34405.1 hPa NE 2.6 km/h 10.3 km/h 64 % 0 mm
16:22 -8.4 °C -12.4 °C 34405.1 hPa ESE 2.6 km/h 10.3 km/h 63 % 0 mm
16:32 -8.9 °C -12.2 °C 34418.7 hPa South 18.2 km/h 18.2 km/h 68 % 0 mm
16:47 -9.3 °C -12.7 °C 34418.7 hPa South 15.6 km/h 36.2 km/h 67 % 0 mm
16:52 -9.4 °C -12.9 °C 34418.7 hPa SSE 12.9 km/h 36.2 km/h 66 % 0 mm
16:57 -9.5 °C -13 °C 34418.7 hPa SSW 5.1 km/h 33.6 km/h 66 % 0 mm
17:02 -9.6 °C -12.9 °C 34418.7 hPa South 5.1 km/h 33.6 km/h 67 % 0 mm
17:12 -9.6 °C -12.8 °C 34418.7 hPa SSE 7.7 km/h 25.9 km/h 68 % 0 mm
17:17 -9.7 °C -12.9 °C 34405.1 hPa SSW 5.1 km/h 20.8 km/h 68 % 0 mm
17:22 -9.7 °C -13.2 °C 34405.1 hPa SSE 5.1 km/h 12.9 km/h 66 % 0 mm
17:32 -9.7 °C -13.2 °C 34405.1 hPa South 2.6 km/h 12.9 km/h 66 % 0 mm
17:37 -9.8 °C -13.2 °C 34405.1 hPa WSW 2.6 km/h 12.9 km/h 67 % 0 mm
17:42 -9.8 °C -13.4 °C 34405.1 hPa Calm   7.7 km/h 65 % 0 mm
17:47 -9.8 °C -13.4 °C 34405.1 hPa Calm   5.1 km/h 65 % 0 mm
17:52 -9.8 °C -13.4 °C 34405.1 hPa Calm   5.1 km/h 65 % 0 mm
17:57 -9.8 °C -13.3 °C 34405.1 hPa Calm   5.1 km/h 66 % 0 mm
18:02 -9.8 °C -13.3 °C 34405.1 hPa Calm   2.6 km/h 66 % 0 mm
18:12 -9.8 °C -13.2 °C 34405.1 hPa Calm     67 % 0 mm
18:17 -9.8 °C -13.1 °C 34405.1 hPa Calm     68 % 0 mm
18:22 -9.9 °C -13 °C 34418.7 hPa Calm     69 % 0 mm
18:32 -9.9 °C -13.2 °C 34418.7 hPa Calm     68 % 0 mm
18:42 -10 °C -13 °C 34418.7 hPa Calm     70 % 0 mm
18:52 -10.1 °C -12.9 °C 34418.7 hPa East 5.1 km/h 10.3 km/h 72 % 0 mm
18:57 -10.1 °C -12.9 °C 34418.7 hPa ESE 5.1 km/h 10.3 km/h 72 % 0 mm
19:02 -10.2 °C -12.9 °C 34418.7 hPa East 5.1 km/h 12.9 km/h 72 % 0 mm
19:07 -10.2 °C -13 °C 34428.8 hPa SE 5.1 km/h 12.9 km/h 72 % 0 mm
19:12 -10.2 °C -13.2 °C 34428.8 hPa Calm   12.9 km/h 70 % 0 mm
19:17 -10.3 °C -13.2 °C 34428.8 hPa East 5.1 km/h 10.3 km/h 71 % 0 mm
19:32 -10.3 °C -13.3 °C 34442.4 hPa Calm   7.7 km/h 70 % 0 mm
19:42 -10.4 °C -13.3 °C 34442.4 hPa Calm   7.7 km/h 71 % 0 mm
19:47 -10.4 °C -13.2 °C 34442.4 hPa ESE 2.6 km/h 7.7 km/h 72 % 0 mm
19:52 -10.5 °C -13.2 °C 34442.4 hPa Calm   7.7 km/h 72 % 0 mm
19:57 -10.5 °C -13.4 °C 34442.4 hPa ENE 5.1 km/h 7.7 km/h 70 % 0 mm
20:02 -10.4 °C -13.7 °C 34442.4 hPa Calm   7.7 km/h 68 % 0 mm
20:12 -10.4 °C -13.8 °C 34428.8 hPa Calm   10.3 km/h 67 % 0 mm
20:22 -10.4 °C -13.8 °C 34442.4 hPa East 2.6 km/h 5.1 km/h 66 % 0 mm
20:32 -10.4 °C -13.9 °C 34442.4 hPa Calm   5.1 km/h 66 % 0 mm
20:37 -10.5 °C -13.9 °C 34442.4 hPa Calm   7.7 km/h 66 % 0 mm
20:42 -10.6 °C -13.9 °C 34442.4 hPa Calm   7.7 km/h 67 % 0 mm
20:47 -10.6 °C -13.8 °C 34442.4 hPa Calm   5.1 km/h 68 % 0 mm
20:52 -10.7 °C -13.7 °C 34442.4 hPa Calm   5.1 km/h 69 % 0 mm
20:57 -10.8 °C -13.6 °C 34442.4 hPa Calm   2.6 km/h 71 % 0 mm
21:02 -10.8 °C -13.8 °C 34442.4 hPa Calm   2.6 km/h 69 % 0 mm
21:12 -10.8 °C -13.9 °C 34442.4 hPa SSE 2.6 km/h 5.1 km/h 69 % 0 mm
21:17 -10.9 °C -13.8 °C 34442.4 hPa Calm   5.1 km/h 70 % 0 mm
21:22 -10.9 °C -13.7 °C 34442.4 hPa Calm   2.6 km/h 72 % 0 mm
21:27 -11 °C -13.8 °C 34442.4 hPa Calm   2.6 km/h 71 % 0 mm
21:32 -11 °C -13.8 °C 34452.6 hPa East 2.6 km/h 2.6 km/h 71 % 0 mm
21:37 -11 °C -13.9 °C 34452.6 hPa ENE 2.6 km/h 5.1 km/h 70 % 0 mm
21:42 -11 °C -14.1 °C 34452.6 hPa Calm   5.1 km/h 69 % 0 mm
21:47 -10.9 °C -13.9 °C 34452.6 hPa SE 2.6 km/h 5.1 km/h 69 % 0 mm
21:52 -10.9 °C -14.1 °C 34442.4 hPa SE 5.1 km/h 7.7 km/h 68 % 0 mm
21:57 -10.9 °C -14 °C 34442.4 hPa SSE 2.6 km/h 7.7 km/h 69 % 0 mm
22:02 -11 °C -13.8 °C 34442.4 hPa South 5.1 km/h 7.7 km/h 71 % 0 mm
22:12 -11.1 °C -13.7 °C 34452.6 hPa Calm   5.1 km/h 73 % 0 mm
22:17 -11.2 °C -13.7 °C 34452.6 hPa Calm   5.1 km/h 74 % 0 mm
22:22 -11.2 °C -13.7 °C 34442.4 hPa Calm   5.1 km/h 74 % 0 mm
22:32 -11.3 °C -13.7 °C 34442.4 hPa Calm   2.6 km/h 75 % 0 mm
22:37 -11.3 °C -13.7 °C 34442.4 hPa Calm   2.6 km/h 75 % 0 mm
22:42 -11.4 °C -13.8 °C 34442.4 hPa Calm   2.6 km/h 75 % 0 mm
22:52 -11.6 °C -13.8 °C 34452.6 hPa ENE 2.6 km/h 2.6 km/h 77 % 0 mm
22:57 -11.7 °C -13.7 °C 34452.6 hPa Calm   5.1 km/h 79 % 0 mm
23:02 -11.7 °C -13.7 °C 34452.6 hPa Calm   5.1 km/h 79 % 0 mm
23:12 -11.7 °C -13.7 °C 34452.6 hPa Calm   5.1 km/h 79 % 0 mm
23:17 -11.7 °C -13.7 °C 34452.6 hPa Calm   2.6 km/h 79 % 0 mm
23:22 -11.8 °C -13.7 °C 34462.7 hPa Calm   2.6 km/h 79 % 0 mm
23:27 -11.9 °C -13.7 °C 34452.6 hPa Calm   2.6 km/h 80 % 0 mm
23:32 -11.9 °C -13.7 °C 34452.6 hPa Calm   2.6 km/h 81 % 0 mm
23:37 -12 °C -13.7 °C 34452.6 hPa Calm     81 % 0 mm
23:42 -12.1 °C -13.7 °C 34462.7 hPa Calm     82 % 0 mm
23:52 -12.1 °C -13.7 °C 34462.7 hPa Calm   2.6 km/h 82 % 0 mm
23:57 -12.1 °C -13.7 °C 34462.7 hPa Calm   2.6 km/h 82 % 0 mm
Meteo18
Compliments of Weather Underground - 4 mb

Script developed by  Jim McMurry - jmcmurry@mwt.net Adapted for the template by  Wim van der Kuil - Leuven-Template.eu

You find our weather info also at:

European Weather Network

Weather Underground

Equipment we use:

Weather-station
Davis Vue

Weather-program
Meteobridge

Weather-server
Raspberry PI 2 B+

Provider
1 and 1

Davis Vue

Meteobridge

Raspberry PI 2 B+

1 and 1